K1UTS Weather Reports


Display with metric or nautical units.
time (UTC)temp
F
wind
direction
speed
MPH
gust
MPH
rain 1hr
in
rain 24hr
in
rain mn
in
humidity
%
barometer
mb
20220627143011 72 131 1.0 4.0 0.05 0.05 0.05 85 1009.2
20220627141510 73 84 0.0 3.0 0.00 0.00 0.00 80 1009.2
20220627140008 73 138 1.0 3.0 0.00 0.00 0.00 80 1009.2
20220627134507 73 32 0.0 6.0 0.00 0.00 0.00 79 1009.3
20220627133013 72 37 0.0 4.0 0.00 0.00 0.00 80 1009.4
20220627131505 72 169 1.0 5.0 0.00 0.00 0.00 79 1009.3
20220627130004 72 109 1.0 4.0 0.00 0.00 0.00 78 1009.3
20220627124504 72 97 0.0 7.0 0.00 0.00 0.00 78 1009.2
20220627123001 72 130 0.0 3.0 0.00 0.00 0.00 78 1009.1
20220627121559 72 134 1.0 3.0 0.00 0.00 0.00 77 1009.3
20220627120102 71 101 0.0 2.0 0.00 0.00 0.00 78 1009.4
20220627114602 71 279 0.0 6.0 0.00 0.00 0.00 78 1009.5
20220627113055 70 69 0.0 3.0 0.00 0.00 0.00 78 1009.5
20220627111554 70 203 0.0 6.0 0.00 0.00 0.00 77 1009.5
20220627110054 70 158 0.0 6.0 0.00 0.00 0.00 77 1009.3
20220627104552 70 166 0.0 5.0 0.00 0.00 0.00 77 1009.5
20220627103051 70 227 0.0 3.0 0.00 0.00 0.00 77 1009.6
20220627101555 69 109 0.0 2.0 0.00 0.00 0.00 78 1009.8
20220627100048 69 208 0.0 3.0 0.00 0.00 0.00 78 1009.9
20220627094546 69 123 0.0 2.0 0.00 0.00 0.00 78 1010.0
20220627093045 68 169 0.0 2.0 0.00 0.00 0.00 78 1010.2
20220627091543 68 72 0.0 2.0 0.00 0.00 0.00 77 1010.3
20220627090041 68 82 0.0 3.0 0.00 0.00 0.00 77 1010.4
20220627084540 68 182 0.0 3.0 0.00 0.00 0.00 76 1010.5
20220627083037 68 289 0.0 2.0 0.00 0.00 0.00 74 1010.5
20220627081535 69 146 0.0 4.0 0.00 0.00 0.00 72 1010.6
20220627080034 69 220 0.0 2.0 0.00 0.00 0.00 71 1010.7
20220627074531 69 159 0.0 2.0 0.00 0.00 0.00 69 1010.8
20220627073032 69 218 0.0 1.0 0.00 0.00 0.00 68 1011.1
20220627071529 70 186 1.0 8.0 0.00 0.00 0.00 66 1011.3
20220627070024 70 169 0.0 1.0 0.00 0.00 0.00 65 1011.5
20220627064523 70 132 0.0 2.0 0.00 0.00 0.00 64 1011.7
20220627063028 70 120 0.0 3.0 0.00 0.00 0.00 64 1011.7
20220627061520 70 53 0.0 3.0 0.00 0.00 0.00 63 1011.8
20220627060018 70 323 0.0 4.0 0.00 0.00 0.00 65 1012.0
20220627054518 70 310 0.0 2.0 0.00 0.00 0.00 64 1012.1
20220627053015 70 256 0.0 2.0 0.00 0.00 0.00 65 1012.2
20220627051514 70 182 0.0 10.0 0.00 0.00 0.00 64 1012.4
20220627050018 70 133 0.0 1.0 0.00 0.00 0.00 66 1012.3
20220627044509 71 22 0.0 3.0 0.00 0.00 0.00 65 1012.5
20220627043013 71 130 0.0 3.0 0.00 0.00 0.00 67 1012.5
20220627041505 71 355 0.0 2.0 0.00 0.00 0.00 65 1012.6
20220627040001 71 141 0.0 1.0 0.00 0.00 0.00 67 1012.9
20220627034501 72 169 0.0 2.0 0.00 0.00 0.00 70 1013.0
20220627033002 72 167 0.0 2.0 0.00 0.00 0.00 71 1013.1
20220627031501 72 340 0.0 2.0 0.00 0.00 0.00 74 1013.1
20220627030100 72 21 0.0 2.0 0.00 0.00 0.00 76 1012.9
20220627024559 73 295 0.0 1.0 0.00 0.00 0.00 75 1013.1
20220627023059 74 181 0.0 2.0 0.00 0.00 0.00 74 1013.1
20220627021610 74 148 0.0 2.0 0.00 0.00 0.00 74 1013.2
20220627020057 74 194 0.0 1.0 0.00 0.00 0.00 74 1013.4
20220627014556 74 186 0.0 1.0 0.00 0.00 0.00 72 1013.2
20220627013102 75 182 0.0 1.0 0.00 0.00 0.00 70 1013.0
20220627011557 76 227 0.0 1.0 0.00 0.00 0.00 68 1012.9
20220627010059 76 227 0.0 1.0 0.00 0.00 0.00 66 1012.8
20220627004554 77 227 0.0 3.0 0.00 0.00 0.00 63 1012.6
20220627003101 78 197 0.0 2.0 0.00 0.00 0.00 62 1012.6
20220627001554 79 219 0.0 2.0 0.00 0.00 0.00 60 1012.6
20220627000102 79 192 1.0 5.0 0.00 0.00 0.00 58 1012.5
20220626234552 81 186 1.0 5.0 0.00 0.00 0.00 56 1012.4
20220626233057 81 168 1.0 7.0 0.00 0.00 0.00 55 1012.4
20220626231552 82 155 1.0 7.0 0.00 0.00 0.00 54 1012.3
20220626230050 82 154 1.0 4.0 0.00 0.00 0.00 54 1012.2
20220626224550 83 202 2.0 10.0 0.00 0.00 0.00 53 1012.0
20220626223050 84 180 1.0 7.0 0.00 0.00 0.00 52 1011.9
20220626221550 84 244 0.0 7.0 0.00 0.00 0.00 51 1011.9
20220626220052 86 355 2.0 10.0 0.00 0.00 0.00 48 1012.0
20220626214546 86 73 1.0 12.0 0.00 0.00 0.00 46 1012.0
20220626213049 85 229 0.0 2.0 0.00 0.00 0.00 45 1012.0
20220626211544 85 15 0.0 2.0 0.00 0.00 0.00 46 1012.2
20220626210058 87 69 1.0 4.0 0.00 0.00 0.00 43 1012.4
20220626204540 87 171 1.0 4.0 0.00 0.00 0.00 40 1012.5
20220626203038 87 288 0.0 2.0 0.00 0.00 0.00 44 1012.6
20220626201552 89 184 1.0 3.0 0.00 0.00 0.00 40 1012.6
20220626200035 89 126 0.0 4.0 0.00 0.00 0.00 43 1012.8
20220626194535 87 160 0.0 1.0 0.00 0.00 0.00 43 1012.9
20220626193037 88 63 0.0 4.0 0.00 0.00 0.00 43 1013.1
20220626191531 85 317 1.0 2.0 0.00 0.00 0.00 48 1013.3
20220626190035 88 182 1.0 5.0 0.00 0.00 0.00 41 1013.4
20220626184533 88 57 0.0 2.0 0.00 0.00 0.00 40 1013.5
20220626183025 87 175 1.0 3.0 0.00 0.00 0.00 42 1013.6
20220626181525 87 310 0.0 3.0 0.00 0.00 0.00 41 1013.7
20220626180029 90 138 0.0 4.0 0.00 0.00 0.00 38 1013.9
20220626174520 90 193 1.0 13.0 0.00 0.00 0.00 36 1014.2
20220626173020 91 115 0.0 6.0 0.00 0.00 0.00 35 1014.3
20220626171518 89 227 0.0 2.0 0.00 0.00 0.00 40 1014.5
20220626170016 89 14 0.0 5.0 0.00 0.00 0.00 39 1014.7
20220626164511 89 251 0.0 3.0 0.00 0.00 0.00 42 1014.8
20220626163009 88 189 0.0 5.0 0.00 0.00 0.00 41 1015.0
20220626161506 88 264 0.0 3.0 0.00 0.00 0.00 46 1015.2
20220626160006 88 91 1.0 3.0 0.00 0.00 0.00 43 1015.2
20220626154600 87 64 1.0 4.0 0.00 0.00 0.00 44 1015.5
20220626153057 86 243 0.0 3.0 0.00 0.00 0.00 48 1015.7
20220626151555 86 145 1.0 4.0 0.00 0.00 0.00 47 1015.7
20220626150056 84 168 0.0 2.0 0.00 0.00 0.00 54 1015.8
20220626144552 83 337 0.0 2.0 0.00 0.00 0.00 52 1016.0